Regional Weather Roundup
Issued by NWS Pendleton, OR

Home | Current Version | Previous Version | Text Only | Print | Product List | Glossary On
Versions: 1 2 3 4 5 6 7 8 9 10 11 12 13 14 15 16 17 18 19 20 21 22 23 24 25 26 27 28 29 30 31 32 33 34 35 36 37 38 39 40 41 42 43 44 45 46 47 48 49 50
701
ASUS46 KPDT 041025
RWRPDT
PENDLETON REGIONAL WEATHER ROUNDUP
NATIONAL WEATHER SERVICE PENDLETON OREGON
200 AM PST SUN DEC 4 2016

NOTE: FAIR INDICATES FEW OR NO CLOUDS BELOW 12,000 FEET WITH NO
SIGNIFICANT WEATHER AND/OR OBSTRUCTIONS TO VISIBILITY.

# INDICATES UNOFFICIAL STATION AND DATA

WAZ520-041110-
EAST SLOPES OF WASHINGTON CASCADES

CITY            SKY/WX      TMP DP  RH  WIND    PRES   REMARKS
#CLE ELUM HS    N/A         34  32  92  CALM    29.89F
#CLE ELUM LAKE  N/A         32  31  96  CALM    29.93F
#GLENWOOD       N/A         38  36  92  SW7     30.03F
#MANASTASH CYN  N/A         33  30  89  CALM    29.87F
#NELSON 3SW     N/A         31  30  96  CALM    30.15F
#NILE           N/A         35  34  96  CALM    29.22F
#RONALD 2NW     N/A         31  N/A N/A SW1     29.86F
#TEANAWAY 4NE   N/A         32  32  100 CALM    N/A
#TROUT LAKE 1NE N/A         37  36  96  CALM    30.05F
#TROUT LAKE 1E  N/A         37  36  96  CALM    29.98F
$$

WAZ521-041110-
SIMCOE HIGHLANDS

CITY            SKY/WX      TMP DP  RH  WIND    PRES   REMARKS
#CENTERVILLE 1SWN/A         38  35  89  W7      30.01F
#GOLDENDALE 1NE N/A         40  32  73  SW3     N/A
#GOLDENDALE 4W  N/A         39  28  64  SW1     30.04F
#GOODNOE HILLS  N/A         43  35  73  W20     29.90F WCI 34
#LYLE 6NE       N/A         40  38  92  SW10    30.01F
$$

WAZ026-041110-
KITTITAS VALLEY

CITY            SKY/WX      TMP DP  RH  WIND    PRES   REMARKS
ELLENSBURG AP   CLOUDY      37  34  89  W6      29.92F
#ELLENSBURG CWU N/A         36  33  89  W2      29.89F
#ELLENSBURG 3NE N/A         35  33  92  CALM    29.93F
#ELLENSBURG 1E  N/A         36  N/A N/A CALM    N/A
#KITTITAS 4N    N/A         34  30  85  E1      29.95F
#KITTITAS 3S    N/A         35  33  92  CALM    29.95F
#THORP 6N       N/A         32  31  96  N1      29.97F
$$

WAZ027-041110-
YAKIMA VALLEY

CITY            SKY/WX      TMP DP  RH  WIND    PRES   REMARKS
SUNNYSIDE AP    CLOUDY      45  33  63  SW16    29.97F WCI 38
YAKIMA AIRPORT  CLOUDY      34  29  82  CALM    29.95F
YAKIMA-VAGABOND PTCLDY      38  31  76  E5      29.91F
#GRANDVIEW      N/A         41  32  70  CALM    30.00F
#MABTON         N/A         48  37  65  SW13G24 29.97F WCI 43
#NACHES 2SW     N/A         40  36  85  SW5     29.94F
#TERRACE HTS    N/A         39  33  79  CALM    29.94F
#TOPPENISH      N/A         47  35  63  CALM    29.90F
#WEST VALLEY    N/A         33  29  85  CALM    29.96F
#W YAKIMA       N/A         39  32  76  E1      29.97F
#WHITE SWAN 5E  N/A         46  36  68  SW13    29.96F WCI 40
#WILEY CITY 3W  N/A         33  27  78  CALM    29.89F
$$

WAZ028-041110-
LOWER COLUMBIA BASIN...WASHINGTON

CITY            SKY/WX      TMP DP  RH  WIND    PRES   REMARKS
PASCO           MOCLDY      48  35  60  SW14G24 30.01F WCI 42
PROSSER AWOS    N/A         46  36  68  S15     30.00F WCI 40
RICHLAND AWOS   CLOUDY      48  36  63  S21G33  29.99F WCI 41
#BENTON CITY    N/A         45  37  73  S15G30  29.90F WCI 38
#CONNELL 5N     N/A         41  36  82  SW8     29.98F
#CONNELL 5NW    N/A         41  35  79  SW7     29.93F
#ELTOPIA 6NW    N/A         44  37  76  SW13G33 28.93F WCI 38
#KAHLOTUS       N/A         42  34  73  W22G32  29.97F WCI 33
#KENNEWICK 3S   N/A         44  34  68  N7      30.00F
#PATERSON       N/A         46  37  71  N15     30.01F WCI 40
#SAGEMOOR 2W    N/A         45  36  70  S17G28  29.83F WCI 38
#TOUCHET 2S     N/A         49  34  56  CALM    30.01F
#WEST PASCO     N/A         47  36  65  S9      30.00F
$$

WAZ029-041110-
FOOTHILLS OF THE BLUES...WASHINGTON

CITY            SKY/WX      TMP DP  RH  WIND    PRES   REMARKS
WALLA WALLA AP  CLOUDY      45  33  63  S17     30.01F WCI 38
#CLYDE 6NW      N/A         43  33  67  W13     30.00F WCI 36
#DAYTON SCHOOL  N/A         42  30  62  SE9     30.01F
#LOWDEN 2SE     N/A         48  34  58  SW7     30.00F
#PLEASANT VIEW 1N/A         40  33  76  S16     30.03F WCI 32
#PRESCOTT       N/A         45  37  73  S1      30.00F
#WHITMAN COLLEGEN/A         45  36  70  S2      30.08F
#WAITSBURG 5S   N/A         41  35  79  S13     30.11F WCI 34
#WAITSBURG 8N   N/A         41  N/A N/A S20     29.99F WCI 32
#WALLA WALLA U  N/A         47  36  65  CALM    30.04F
#WHITMAN MISSIONN/A         49  34  56  S5      30.05F
$$

WAZ030-041110-
BLUE MOUNTAINS...WASHINGTON

CITY            SKY/WX      TMP DP  RH  WIND    PRES   REMARKS
#DIXIE 5SE      N/A         36  32  85  S16G26  29.89F WCI 26
#SKI BLUEWOOD   N/A         30  28  92  N2      29.93F
$$

ORZ009-041-WAZ024-041110-
COLUMBIA RIVER GORGE

CITY            SKY/WX      TMP DP  RH  WIND    PRES   REMARKS
HOOD RIVER AP   LGT RAIN    43  41  93  CALM    30.06F
THE DALLES AP   LGT RAIN    48  39  71  NW16G28 30.04F WCI 42
#ARLINGTON AIRPON/A         43  37  79  SW3     30.04F
#ARLINGTON HS   N/A         46  35  65  N5      29.96F
#CELILO DOT     N/A         48  34  58  SW3     N/A
#LYLE           N/A         47  42  83  NW6     30.07F
#MOSIER 1S      N/A         43  32  65  W10     N/A
#MURDOCK        N/A         47  41  79  W7      30.02F
#RUFUS DOT      N/A         48  39  71  W16     N/A    WCI 42
#SMITHVILLE     N/A         47  42  83  N9      30.00F

$$

ORZ510-041110-
NORTH CENTRAL OREGON

CITY            SKY/WX      TMP DP  RH  WIND    PRES   REMARKS
#ANTELOPE       N/A         38  30  73  SW7     29.96F
#CHENOWITH 1W   N/A         40  36  85  W17     N/A    WCI 31
#COW CYN RST AREN/A         39  N/A N/A SW10    N/A
#DUFUR 9E       N/A         41  34  76  SW20G29 30.08F WCI 32
#GRASS VALLEY 1SN/A         42  35  76  W21G29  29.94F WCI 33
#KENT DOT       N/A         38  25  59  N8      N/A
#MAUPIN SCHOOL  N/A         46  36  68  SW1     30.09F
#MORO SCHOOL    N/A         42  37  82  SW7     30.00F
#SHANIKO 5WSW   N/A         35  23  61  N12     N/A    WCI 27
#SHANIKO 4NW    N/A         34  27  75  W12     30.01F WCI 25
#WAPANITIA AIRPON/A         42  34  73  SW6     30.07F
#WASCO DOT      N/A         36  32  85  SW3     N/A
#WASCO 5NE      N/A         40  36  85  SW7     30.04F
$$

ORZ511-041110-
CENTRAL OREGON

CITY            SKY/WX      TMP DP  RH  WIND    PRES   REMARKS
BEND AIRPORT    PTCLDY      43  30  60  S17G28  30.03F WCI 35
MADRAS AIRPORT  CLOUDY      43  30  60  SW20G31 30.07F WCI 34
PRINEVILLE AP   CLOUDY      32  28  85  CALM    30.05F
REDMOND AIRPORT MOCLDY      30  24  78  E3      30.04F
#ASHWOOD SCHOOL N/A         45  32  60  SW5     30.01S
#BEND 1SW       N/A         37  31  79  NW3     N/A
#BEND-AWBREY    N/A         39  32  76  SW15    30.07F WCI 31
#BEND-KIM LN    N/A         32  27  82  N1      29.95F
#CULVER         N/A         38  28  67  E1      30.03F
#CULVER 8W      N/A         41  30  65  CALM    30.05F
#LAKE BILLY CHINN/A         42  N/A N/A SW17    30.14S WCI 34
#MADRAS 4S      N/A         N/A N/A N/A N9      30.12F
#POWELL BUTTE 3EN/A         32  25  75  E3      N/A
#POWELL BUTTE   N/A         44  31  60  S9      29.98F
#PRINEVILLE 3N  N/A         29  27  92  W2      30.12F

$$


ORZ509-041110-
EAST SLOPES OF OREGON CASCADES

CITY            SKY/WX      TMP DP  RH  WIND    PRES   REMARKS
SISTERS AWOS    N/A         37  32  82  N9      29.98F
#BLUE BOX PASS  N/A         N/A N/A N/A CALM    N/A
#CAMP SHERMAN   N/A         37  31  79  VRB5    30.15F
#LA PINE 4NW    N/A         25  22  88  CALM    30.22F
#LAVA BUTTE DOT N/A         37  23  56  SE2     N/A
#SISTERS AIRPOR N/A         37  35  92  N3      30.17S
#SISTERS ODOT   N/A         36  N/A N/A NW1     N/A
#SISTERS 3N     N/A         37  28  70  N3      30.03F
#SUNRIVER       N/A         36  28  72  S6      30.15F
#SUTTLE LK DOT  N/A         30  30  100 NE2     N/A
#TUMALO 3W      N/A         39  31  73  S6      29.96F
#WANOGA BUTTE D N/A         34  31  89  W21     N/A    WCI 22

$$

ORZ044-041110-
LOWER COLUMBIA BASIN...OREGON

CITY            SKY/WX      TMP DP  RH  WIND    PRES   REMARKS
HERMISTON       MOCLDY      46  32  58  SW7     30.03F
#BOARDMAN SCHOOLN/A         45  34  65  S2      30.05F
#I-84 EX 198 DOTN/A         45  32  60  N8      N/A
#UMATILLA       N/A         46  32  58  CALM    29.98F
$$

ORZ507-041110-
NORTHERN FOOTHILLS OF THE BLUES

CITY            SKY/WX      TMP DP  RH  WIND    PRES   REMARKS
PENDLETON AIRPT CLOUDY      42  29  60  S6      30.02F
#ADAMS 3WNW     N/A         40  33  76  CALM    30.04F
#ATHENA         N/A         43  33  67  CALM    30.07F
#CAYUSE         N/A         45  32  60  CALM    30.03F
#HELIX SCHOOL   N/A         40  33  76  N5      30.05F
#HELIX 3N       N/A         40  32  73  S7      29.98F
#HOLDMAN 5SE    N/A         44  33  65  SW3     30.01F
#HOLDMAN 6E     N/A         42  32  67  S9      29.85F
#M-F GROVE ELEM N/A         46  30  53  S7      29.99F
#M-FREEWATER 5SEN/A         44  33  65  SW1     30.01F
#PENDLETON DNTN N/A         46  27  47  W3      30.04F
#PDT AQUATIC CTRN/A         45  29  53  W2      30.01F
#PDT SUNRIDGE   N/A         42  32  67  CALM    30.03F
#PENDLETON 7NW  N/A         44  32  62  CALM    31.33R
#PILOT ROCK 1S  N/A         45  28  51  S5      30.02F
#PILOT ROCK     N/A         41  31  67  SW2     30.03F
#TUTUILLA       N/A         43  33  67  CALM    30.04F
#UMAPINE 2E     N/A         48  34  58  SW2     30.00F
#WESTON SCHOOL  N/A         42  29  60  S6      29.92F

$$

ORZ508-041110-
SOUTHERN FOOTHILLS OF THE BLUES

CITY            SKY/WX      TMP DP  RH  WIND    PRES   REMARKS
LEXINGTON       CLOUDY      46  30  53  S12     30.05F WCI 40
#AJAX           N/A         43  27  53  S17G32  27.75F WCI 35
#CONDON SCHOOL  N/A         38  31  76  SW6     29.97F
#CONDON 5W      N/A         36  28  72  SW15    29.96F WCI 27
#HEPPNER EOC    N/A         45  31  58  SW7     29.99F
#HEPPNER 4NE    N/A         41  30  65  SW7     30.06F
#LEXINGTON 2SE  N/A         47  31  53  SW3     29.98F
#MIKKALO        N/A         43  30  60  SW5     30.11F
#OLEX 4N        N/A         41  34  76  S1      30.03F
#RUGGS 5NE      N/A         41  29  62  SW7     30.14F
#RUGGS 2SW      N/A         41  29  62  S2      30.09F

$$

ORZ502-503-041110-
BLUE MOUNTAINS

CITY            SKY/WX      TMP DP  RH  WIND    PRES   REMARKS
#BATTLE MTN DOT N/A         32  26  78  S6      N/A
#GREENHORN 9SW  N/A         30  30  100 CALM    26.25F
#LADD CYN SMT   N/A         32  31  96  SE3     N/A
#LADD CREEK ODOTN/A         33  31  92  S1      N/A
#LONG CREEK HS  N/A         34  32  92  CALM    30.02F
#N POWDER DOT   N/A         32  31  96  W6      N/A
#PIKES PEAK     N/A         34  29  82  S23G31  27.99S WCI 22
#TOLLGATE       N/A         28  27  96  CALM    29.82F
#TROY SCHOOL    N/A         39  36  89  CALM    29.92F
#UKIAH          N/A         32  30  92  CALM    30.02F
#WESTON 4E      N/A         34  32  92  SE3     30.03F
$$

ORZ505-041110-
JOHN DAY BASIN

CITY            SKY/WX      TMP DP  RH  WIND    PRES   REMARKS
JOHN DAY        MOCLDY      39  27  62  S13     30.05F WCI 31
#ANTELOPE 9ESE  N/A         34  29  82  SW1     N/A
#DAYVILLE SCHOOLN/A         37  28  70  E5      30.02F
#MITCHELL       N/A         39  32  76  CALM    30.18F
#MITCHELL 8NW   N/A         40  26  57  S7      30.27S
#MONUMENT HS    N/A         36  30  79  CALM    30.02F
#MT. VERNON 5SE N/A         39  26  59  SW3     30.00F
#SPRAY SCHOOL   N/A         36  N/A N/A CALM    N/A
$$

ORZ506-041110-
OCHOCO AND JOHN DAY HIGHLANDS

CITY            SKY/WX      TMP DP  RH  WIND    PRES   REMARKS
#BUCK CREEK DOT N/A         38  30  73  SW16    N/A    WCI 29
#HORSE RIDGE DO N/A         39  25  57  S14     N/A    WCI 31
#KEYES SMT DOT  N/A         41  32  70  S23G31  N/A    WCI 31
#PAULINA SCHOOL N/A         27  25  92  CALM    N/A
#PINE MTN OBS   N/A         31  26  81  SW8G24  N/A
#SENECA         N/A         26  N/A N/A W1      N/A
#SENECA 9NW     N/A         26  24  92  CALM    30.19F
$$

ORZ049-041110-
GRANDE RONDE VALLEY

CITY            SKY/WX      TMP DP  RH  WIND    PRES   REMARKS
LA GRANDE       CLOUDY      36  27  69  S9      30.04F
#COVE           N/A         36  35  96  E1      30.08F
#COVE SCHOOL    N/A         36  33  89  CALM    30.06F
#COVE 6NW       N/A         36  32  85  CALM    30.14F
#ELGIN 3N       N/A         35  30  82  S5      30.00F
#ELGIN 1E       N/A         37  32  82  CALM    N/A
#IMBLER SCHOOL  N/A         34  32  92  CALM    30.01F
#ISLAND CITY 4N N/A         45  44  96  CALM    30.11F
#LADD CYN DOT   N/A         34  33  96  S7      N/A
#UNION 1S       N/A         35  32  89  S1      30.15F
$$

ORZ050-041110-
WALLOWA COUNTY

CITY            SKY/WX      TMP DP  RH  WIND    PRES   REMARKS
JOSEPH AIRPORT  LGT SNOW    32  27  82  W3      30.03F
#IMNAHA SCHOOL  N/A         42  34  73  S7      30.06F
#JOSEPH 3N      N/A         31  23  72  CALM    30.03F
#JOSEPH 3W      N/A         29  25  85  CALM    29.84F
#LOSTINE        N/A         33  27  78  S1      29.90F
#LOSTINE 3SE    N/A         33  26  75  SE2     30.02F
#MT HOWARD 8000 N/A         24  21  88  W13G32  29.87F WCI 12
#PROMISE 1S     N/A         32  30  92  E6      30.19F
#WALLOWA SCHOOL N/A         36  32  85  CALM    30.00F



$$



USA.gov is the U.S. government's official web portal to all federal, state and local government web resources and services.